Back to catalog

QIANFAN-120

AliveCommunicationsPO
NORAD 68647·PAYLOAD·🇨🇳 China

Launched Apr 7, 2026 from Wenchang Space Launch Site

Loading…

Next Passes (next 24 hours)

TLE

FreshSource: Space-Track

Epoch: Sep 14, 2026, 13:45 UTC

1 68647U 26075M   26257.57320231  .00000066  00000-0  82845-4 0  9999
2 68647  88.9877 311.8705 0002047  86.7522 273.3863 13.51019901 21889

Track QIANFAN-120 in real time with AllMySat

Download on the App Store